Dallas Redbird, TX

8:09 PM CDT on September 22, 2017 (GMT -0500)
Redbird

Weather History for KRBD - December, 2013

Change the Weather History Date:

Thursday, December 12, 2013

  Actual Average Record
Temperature  
Mean Temperature 37 °F -  
Max Temperature 48 °F 55 °F 73 °F (2015)
Min Temperature 26 °F 37 °F 19 °F (2000)
Degree Days  
Heating Degree Days 28    
Moisture  
Dew Point 28 °F    
Average Humidity 67    
Maximum Humidity 85    
Minimum Humidity 46    
Precipitation  
Precipitation 0.00 in - - ()
Sea Level Pressure  
Sea Level Pressure 30.50 in    
Wind  
Wind Speed 3 mph (East)    
Max Wind Speed 6 mph    
Max Gust Speed -    
Visibility 8 miles    
Events      
Averages and records for this station are not official NWS values.
T = Trace of Precipitation, MM = Missing Value Source: NWS Daily Summary

Daily Weather History Graph

Daily Weather History Graph

Search for Another Location

Airport or City:

Trip Planner

Search our weather history database for the weather conditions in past years. The results will help you decide how hot, cold, wet, or windy it might be!

Date:

Astronomy

Dec. 12, 2013 Rise Set
Actual Time 7:20 AM CST 5:22 PM CST
Civil Twilight 6:53 AM CST 5:49 PM CST
Nautical Twilight 6:22 AM CST 6:20 PM CST
Astronomical Twilight 5:52 AM CST 6:50 PM CST
Moon 2:20 PM CST (12/12) 2:55 AM CST (12/12)
Length of Visible Light 10h 56m
Length of Day
10h 01m
Waxing Gibbous, 80% of the Moon is Illuminated
Dec 12
Waxing Gibbous
Dec 17
Full
Dec 25
Last Quarter
Jan 1
New
Jan 7
First Quarter

Hourly Weather History & Observations

Time (CST) Temp. Windchill Dew Point Humidity Pressure Visibility Wind Dir Wind Speed Gust Speed Precip Events Conditions
12:53 AM 33.1 °F 28.7 °F 25.0 °F 72% 30.58 in 10.0 mi North 4.6 mph - N/A   Clear
1:53 AM 30.0 °F - 25.0 °F 82% 30.57 in 8.0 mi Calm Calm - N/A   Clear
2:53 AM 30.0 °F 25.2 °F 24.1 °F 79% 30.58 in 8.0 mi NW 4.6 mph - N/A   Clear
3:53 AM 28.0 °F 22.8 °F 23.0 °F 81% 30.59 in 6.0 mi NNW 4.6 mph - N/A   Haze
4:53 AM 27.0 °F 21.6 °F 23.0 °F 85% 30.58 in 7.0 mi NNW 4.6 mph - N/A   Clear
5:53 AM 27.0 °F 23.0 °F 21.9 °F 81% 30.58 in 6.0 mi NW 3.5 mph - N/A   Haze
6:53 AM 27.0 °F 21.6 °F 23.0 °F 85% 30.60 in 6.0 mi NW 4.6 mph - N/A   Clear
7:53 AM 26.1 °F 21.9 °F 21.9 °F 84% 30.60 in 5.0 mi NW 3.5 mph - N/A   Clear
8:53 AM 33.1 °F - 26.1 °F 75% 30.60 in 6.0 mi Calm Calm - N/A   Haze
9:53 AM 37.9 °F 35.5 °F 28.0 °F 68% 30.61 in 8.0 mi ESE 3.5 mph - N/A   Clear
10:53 AM 41.0 °F 37.1 °F 28.0 °F 60% 30.61 in 10.0 mi South 5.8 mph - N/A   Clear
11:53 AM 44.1 °F - 28.9 °F 55% 30.58 in 10.0 mi Calm Calm - N/A   Clear
12:53 PM 46.0 °F - 28.9 °F 51% 30.53 in 10.0 mi Calm Calm - N/A   Clear
1:53 PM 48.0 °F - 28.9 °F 48% 30.49 in 10.0 mi Calm Calm - N/A   Clear
2:53 PM 48.9 °F - 28.9 °F 46% 30.46 in 10.0 mi Calm Calm - N/A   Clear
3:53 PM 48.9 °F - 28.9 °F 46% 30.43 in 10.0 mi Calm Calm - N/A   Clear
4:53 PM 46.9 °F - 30.9 °F 54% 30.42 in 10.0 mi SE 4.6 mph - N/A   Clear
5:53 PM 44.1 °F 41.5 °F 32.0 °F 63% 30.41 in 9.0 mi SE 4.6 mph - N/A   Clear
6:53 PM 44.1 °F - 32.0 °F 63% 30.40 in 9.0 mi Calm Calm - N/A   Clear
7:53 PM 43.0 °F - 32.0 °F 65% 30.39 in 9.0 mi Calm Calm - N/A   Clear
8:53 PM 43.0 °F 41.3 °F 32.0 °F 65% 30.37 in 10.0 mi SE 3.5 mph - N/A   Clear
9:53 PM 42.1 °F 40.2 °F 32.0 °F 67% 30.36 in 9.0 mi SE 3.5 mph - N/A   Clear
10:53 PM 42.1 °F 40.2 °F 32.0 °F 67% 30.33 in 9.0 mi ESE 3.5 mph - N/A   Clear
11:53 PM 42.1 °F 39.2 °F 32.0 °F 67% 30.31 in 9.0 mi SSE 4.6 mph - N/A   Clear